Regional Weather Roundup
Issued by NWS

Home | Current Version | Previous Version | Text Only | Print | Product List | Glossary Off
Versions: 1 2 3 4 5 6 7 8 9 10 11 12 13 14 15 16 17 18 19 20 21 22 23 24 25 26 27 28 29 30 31 32 33 34 35 36 37 38 39 40 41 42 43 44 45 46 47 48 49 50

418
ASUS43 KMPX 011601
RWRMN
WEATHER ROUNDUP FOR MINNESOTA
NATIONAL WEATHER SERVICE TWIN CITIES/CHANHASSEN MN
1100 AM CDT SAT OCT 01 2016


NOTE: "FAIR" INDICATES FEW OR NO CLOUDS BELOW 12,000 FEET WITH NO
SIGNIFICANT WEATHER AND/OR OBSTRUCTIONS TO VISIBILITY. N/A MEANS
CURRENT SKY AND/OR WEATHER CONDITIONS ARE NOT AVAILABLE.

MNZ060>063-068>070-011700-
   Twin Cities Metro

CITY           SKY/WX    TMP DP  RH WIND       PRES   REMARKS
TWIN CITIES    SUNNY     64  53  67 N6        30.16F
ST PAUL        SUNNY     63  53  70 CALM      30.17F
CRYSTAL        MOSUNNY   59  51  75 VRB6      30.17F
BLAINE         CLOUDY    57  55  94 N6        30.18F
LAKEVILLE      SUNNY     63  54  72 NE9       30.15F
EDEN PRAIRIE   SUNNY     63  53  70 NE7       30.15F
LAKEVILLE      SUNNY     63  54  72 NE9       30.15F
SOUTH ST PAUL  SUNNY     63  53  70 CALM      30.16F
LAKE ELMO      FAIR      63  55  77 NE3       30.18F
$$
MNZ001>005-007-008-013>017-022>024-027-028-011700-
   Northwest Minnesota

CITY           SKY/WX    TMP DP  RH WIND       PRES   REMARKS
BEMIDJI        CLOUDY    51  51 100 E5        30.21S FOG
HALLOCK        SUNNY     63  54  72 S12       30.15F
ROSEAU         PTSUNNY   57  52  82 CALM      30.19S
WARROAD        MOSUNNY   55  52  88 CALM      30.20S
THIEF RVR FALL CLOUDY    57  51  80 E3        30.19S
CROOKSTON      CLOUDY    61  54  77 S7        30.16F
FOSSTON        SUNNY     64  57  77 S5        30.17F
DETROIT LAKES  CLOUDY    54  52  94 SE9       30.19S
MOORHEAD       MOSUNNY   63  54  72 S8        30.16S
PARK RAPIDS    CLOUDY    53  50  89 SE8       30.20S
MAHNOMEN       FAIR      61  52  71 SE3       30.17S
$$
MNZ006-009>011-018-025>026-011700-
   North Central Minnesota

CITY           SKY/WX    TMP DP  RH WIND       PRES   REMARKS
BAUDETTE       MOSUNNY   53  49  86 SE3       30.21F
FLAG ISLAND    CLOUDY    54  48  82 S6        30.19S
INTL FALLS     MOSUNNY   59  50  72 SE7       30.21F
WASKISH        CLOUDY    50  48  93 CALM      30.21S FOG
BIG FORK       SUNNY     55  55 100 S5        30.22S
GRAND RAPIDS   CLOUDY    52  50  93 CALM      30.24F
ORR            SUNNY     59  48  67 CALM      30.20F
COOK           MOSUNNY   61  50  67 SE6       30.22F
WALKER         CLOUDY    51  49  95 CALM      30.22S
$$
MNZ012-019>021-037-011700-
   Northeast Minnesota

CITY           SKY/WX    TMP DP  RH WIND       PRES   REMARKS
DULUTH         CLOUDY    59  52  77 E5        30.22S
ELY            PTSUNNY   57  48  72 CALM      30.23F
HIBBING        CLOUDY    52  49  89 CALM      30.23F
EVELETH        MOSUNNY   55  50  83 CALM      30.24F
DULUTH HARBOR  PTSUNNY   55  52  88 CALM      30.23F
TWO HARBORS    PTSUNNY   61  55  82 NE5       30.21F
SILVER BAY     CLOUDY    59  54  82 E7        30.22F
GRAND MARAIS     N/A     61  50  67 E3        30.22F
G MARAIS ARPRT CLOUDY    61  45  55 NE7       30.26S
$$
MNZ029>031-032-039>041-046>048-054>057-064-011700-
   West Central Minnesota

CITY           SKY/WX    TMP DP  RH WIND       PRES   REMARKS
FERGUS FALLS   SUNNY     61  54  77 SE8       30.19S
MORRIS         SUNNY     63  55  77 SE5       30.16F
ALEXANDRIA     CLOUDY    53  53 100 E7        30.19F FOG
ELBOW LAKE     FAIR      57  54  88 SE8       30.18S
WADENA         CLOUDY    52  52 100 E3        30.19F FOG
GLENWOOD       CLOUDY    55  54  94 E6        30.19S FOG
BENSON         CLOUDY    57  54  88 SE3       30.17F
ORTONVILLE     SUNNY     59  54  82 CALM      30.15F
MADISON        MOSUNNY   64  55  72 CALM      30.16S
WILLMAR        FAIR      63  55  77 E5        30.18F
$$
MNZ033>034-036-042>043-049>051-058-059-011700-
   Central Minnesota

CITY           SKY/WX    TMP DP  RH WIND       PRES   REMARKS
ST CLOUD       SUNNY     61  53  75 VRB5      30.18F
SAUK CENTRE    CLOUDY    55  53  93 E7        30.19F
PAYNESVILLE    SUNNY     60  55  81 E3        30.18F
AITKIN         CLOUDY    55  48  76 NE3       30.20F
PINE RIVER     CLOUDY    52  52 100 CALM      30.23F
BRAINERD       CLOUDY    54  50  86 CALM      30.21F
STAPLES        CLOUDY    54  52  94 CALM      30.19F
LONG PRAIRIE   CLOUDY    52  52 100 NE3       30.20S FOG
LITTLE FALLS   MOSUNNY   55  50  82 CALM      30.19F
LITCHFIELD     MOSUNNY   61  57  88 E5        30.18F
BUFFALO        CLOUDY    55  51  87 N5        30.20S
MAPLE LAKE     CLOUDY    56  55  97 NE3       30.20S
HUTCHINSON     MOSUNNY   58  55  89 N3        30.18F
$$
MNZ037-044-045-052-053-011700-
   East Central Minnesota

CITY           SKY/WX    TMP DP  RH WIND       PRES   REMARKS
PRINCETON        N/A     55  52  88 NE5       30.20F
MORA           CLOUDY    52  52 100 CALM      30.22F
CAMBRIDGE      CLOUDY    55  52  88 N5        30.18F
MOOSE LAKE     MOSUNNY   57  52  82 E3        30.20F
HINCKLEY       PTSUNNY   55  52  88 CALM      30.21F
CLOQUET        PTSUNNY   59  52  77 E6        30.22S
MCGREGOR       CLOUDY    54  52  94 CALM      30.22F
$$
MNZ071>073-080-081-089-090-097-098-011700-
   Southwest Minnesota

CITY           SKY/WX    TMP DP  RH WIND       PRES   REMARKS
MONTEVIDEO     CLOUDY    61  54  77 SE3       30.18S
GRANITE FALLS  CLOUDY    60  55  84 E3        30.18F
CANBY          CLOUDY    59  53  79 CALM      30.17S
MARSHALL       CLOUDY    59  53  80 CALM      30.16F
REDWOOD FALLS  SUNNY     62  53  72 VRB3      30.16F
OLIVIA         SUNNY     61  54  77 E5        30.16S
PIPESTONE      CLOUDY    63  55  77 CALM      30.16S
WINDOM         PTSUNNY   64  54  68 NE5       30.16S
WORTHINGTON    CLOUDY    61  55  81 VRB3      30.17S
JACKSON        CLOUDY    64  52  63 N8        30.15F
TRACY          CLOUDY    61  56  83 CALM      30.16F
$$
MNZ065>067-074>077-082>085-091>093-011700-
   South Central Minnesota

CITY           SKY/WX    TMP DP  RH WIND       PRES   REMARKS
MANKATO        SUNNY     65  55  70 VRB6      30.14F
NEW ULM        SUNNY     63  54  72 NE5       30.15F
ST JAMES       CLOUDY    63  55  77 CALM      30.16F
FAIRMONT       PTSUNNY   66  56  70 NE10      30.15S
GLENCOE        PTSUNNY   57  57 100 NE3       30.17F
FARIBAULT      SUNNY     64  54  68 NE6       30.15F
OWATONNA       SUNNY     66  54  63 NE7       30.14S
WASECA         SUNNY     64  52  63 NE7       30.16S
ALBERT LEA     CLOUDY    64  54  68 N7        30.13F
$$
MNZ078>079-086>088-094>096-011700-
   Southeast Minnesota

CITY           SKY/WX    TMP DP  RH WIND       PRES   REMARKS
ROCHESTER      PTSUNNY   64  56  75 NE7       30.14F
RED WING       SUNNY     64  54  68 CALM      30.14F
STANTON        SUNNY     65  54  65 NE6       30.14F
DODGE CENTER   PTSUNNY   64  54  68 NE7       30.14S
WINONA         MOSUNNY   63  54  72 N3        30.13F
AUSTIN         CLOUDY    63  55  77 E9        30.13S
PRESTON        CLOUDY    59  54  84 E9        30.14S
$$
ABBREVIATIONS USED IN REMARKS
   TC - TEMPERATURES IN CELSIUS
  WCI - WIND CHILL INDEX
   HX - HEAT INDEX
  VSB - VISIBILITY
$$




USA.gov is the U.S. government's official web portal to all federal, state and local government web resources and services.